CW3827 Weather Reports


Display with metric or nautical units.
time (UTC)temp
F
wind
direction
speed
MPH
gust
MPH
rain 1hr
in
rain 24hr
in
rain mn
in
humidity
%
barometer
mb
20260510224525 71 91 18.0 28.0 0.00 0.00 0.00 37 1023.6
20260510223021 70 70 21.0 29.0 0.00 0.00 0.00 39 1023.3
20260510221522 70 73 18.0 27.0 0.00 0.00 0.00 40 1023.5
20260510220019 70 77 23.0 29.0 0.00 0.00 0.00 40 1023.6
20260510214513 71 77 19.0 29.0 0.00 0.00 0.00 38 1023.5
20260510213025 71 72 20.0 31.0 0.00 0.00 0.00 38 1023.4
20260510211528 72 57 22.0 30.0 0.00 0.00 0.00 37 1023.3
20260510210024 73 58 23.0 29.0 0.00 0.00 0.00 36 1023.1
20260510204523 73 81 21.0 29.0 0.00 0.00 0.00 35 1023.1
20260510203020 73 77 23.0 30.0 0.00 0.00 0.00 36 1023.1
20260510201516 73 54 19.0 28.0 0.00 0.00 0.00 35 1023.3
20260510200030 72 84 22.0 29.0 0.00 0.00 0.00 36 1023.3
20260510194529 71 54 23.0 32.0 0.00 0.00 0.00 37 1023.3
20260510193023 72 84 25.0 33.0 0.00 0.00 0.00 36 1023.4
20260510191525 70 47 25.0 32.0 0.00 0.00 0.00 37 1023.4
20260510190024 71 61 22.0 33.0 0.00 0.00 0.00 36 1023.5
20260510184505 71 65 22.0 29.0 0.00 0.00 0.00 37 1023.6
20260510183003 70 58 23.0 31.0 0.00 0.00 0.00 37 1023.6
20260510181512 69 56 26.0 33.0 0.00 0.00 0.00 36 1023.4
20260510180011 69 70 23.0 34.0 0.00 0.00 0.00 38 1023.6
20260510174508 68 54 23.0 36.0 0.00 0.00 0.00 38 1023.6
20260510173004 67 61 25.0 36.0 0.00 0.00 0.00 38 1023.5
20260510171505 66 67 25.0 33.0 0.00 0.00 0.00 38 1023.4
20260510170006 66 58 26.0 34.0 0.00 0.00 0.00 37 1023.2
20260510164513 65 65 24.0 31.0 0.00 0.00 0.00 38 1023.4
20260510163012 65 63 20.0 28.0 0.00 0.00 0.00 38 1023.1
20260510161508 64 54 18.0 24.0 0.00 0.00 0.00 39 1022.9
20260510160009 64 96 15.0 26.0 0.00 0.00 0.00 39 1022.7
20260510154504 65 61 19.0 27.0 0.00 0.00 0.00 36 1022.6
20260510153033 65 65 21.0 26.0 0.00 0.00 0.00 36 1021.9
20260510151527 63 89 18.0 30.0 0.00 0.00 0.00 37 1022.5
20260510150017 63 97 13.0 23.0 0.00 0.00 0.00 38 1023.7
20260510144513 63 51 12.0 25.0 0.00 0.00 0.00 37 1024.1
20260510143008 64 75 10.0 17.0 0.00 0.00 0.00 37 1024.2
20260510141504 64 168 3.0 18.0 0.00 0.00 0.00 37 1024.1
20260510140023 63 75 13.0 21.0 0.00 0.00 0.00 36 1023.9
20260510134524 63 60 15.0 19.0 0.00 0.00 0.00 35 1023.3
20260510133017 62 61 16.0 29.0 0.00 0.00 0.00 35 1022.6
20260510131515 62 88 17.0 24.0 0.00 0.00 0.00 33 1022.1
20260510130034 63 85 13.0 22.0 0.00 0.00 0.00 32 1021.7
20260510124509 63 44 20.0 30.0 0.00 0.00 0.00 31 1021.1
20260510123026 62 84 16.0 22.0 0.00 0.00 0.00 32 1020.7
20260510121525 61 23 4.0 18.0 0.00 0.00 0.00 27 1020.8
20260510120028 60 27 0.0 3.0 0.00 0.00 0.00 31 1020.3
20260510114519 60 72 3.0 11.0 0.00 0.00 0.00 30 1019.7
20260510113018 61 65 12.0 15.0 0.00 0.00 0.00 29 1019.2
20260510111513 61 290 6.0 9.0 0.00 0.00 0.00 27 1019.2
20260510110037 59 15 4.0 8.0 0.00 0.00 0.00 25 1019.1
20260510104526 59 36 1.0 6.0 0.00 0.00 0.00 25 1019.0
20260510103025 61 71 2.0 6.0 0.00 0.00 0.00 23 1018.7
20260510101532 62 61 6.0 9.0 0.00 0.00 0.00 23 1018.2
20260510100023 60 5 6.0 7.0 0.00 0.00 0.00 25 1018.0
20260510094505 60 349 7.0 9.0 0.00 0.00 0.00 26 1017.9
20260510093014 61 8 0.0 0.0 0.00 0.00 0.00 25 1017.9
20260510091507 63 131 2.0 8.0 0.00 0.00 0.00 24 1017.9
20260510090008 63 29 3.0 6.0 0.00 0.00 0.00 25 1017.6
20260510084505 60 349 5.0 6.0 0.00 0.00 0.00 28 1017.5
20260510083004 61 357 7.0 10.0 0.00 0.00 0.00 28 1017.4
20260510081507 61 349 6.0 9.0 0.00 0.00 0.00 27 1017.2
20260510080016 61 346 7.0 10.0 0.00 0.00 0.00 28 1017.3
20260510074515 61 330 5.0 8.0 0.00 0.00 0.00 27 1017.4
20260510073012 61 316 4.0 6.0 0.00 0.00 0.00 26 1017.7
20260510071508 64 342 2.0 5.0 0.00 0.00 0.00 25 1017.7
20260510070004 60 201 4.0 8.0 0.00 0.00 0.00 27 1017.7
20260510064512 63 308 4.0 6.0 0.00 0.00 0.00 26 1017.6
20260510063018 63 294 3.0 6.0 0.00 0.00 0.00 25 1017.5
20260510061523 65 324 5.0 7.0 0.00 0.00 0.00 23 1017.7
20260510060013 66 349 2.0 7.0 0.00 0.00 0.00 22 1017.8
20260510054510 67 349 5.0 8.0 0.00 0.00 0.00 22 1017.8
20260510053017 67 13 1.0 8.0 0.00 0.00 0.00 22 1017.9
20260510051507 65 204 0.0 5.0 0.00 0.00 0.00 22 1017.7
20260510050021 66 314 0.0 4.0 0.00 0.00 0.00 22 1017.8
20260510044520 69 253 2.0 4.0 0.00 0.00 0.00 20 1017.7
20260510043011 72 26 2.0 11.0 0.00 0.00 0.00 19 1017.6
20260510041515 73 70 9.0 16.0 0.00 0.00 0.00 19 1017.4
20260510040005 72 117 11.0 19.0 0.00 0.00 0.00 18 1017.4
20260510034527 72 68 14.0 19.0 0.00 0.00 0.00 18 1017.2
20260510033024 70 111 1.0 4.0 0.00 0.00 0.00 18 1017.1
20260510031518 70 115 2.0 5.0 0.00 0.00 0.00 18 1017.0
20260510030024 70 143 4.0 7.0 0.00 0.00 0.00 18 1016.6
20260510024515 72 148 4.0 11.0 0.00 0.00 0.00 17 1016.4
20260510023009 71 58 5.0 7.0 0.00 0.00 0.00 17 1016.1
20260510021529 74 49 5.0 16.0 0.00 0.00 0.00 16 1016.1
20260510020024 73 155 8.0 14.0 0.00 0.00 0.00 16 1015.9
20260510014524 74 54 9.0 13.0 0.00 0.00 0.00 16 1015.7
20260510013018 76 65 6.0 12.0 0.00 0.00 0.00 15 1015.6
20260510011517 77 190 12.0 21.0 0.00 0.00 0.00 14 1015.6
20260510010013 78 70 10.0 18.0 0.00 0.00 0.00 14 1015.6
20260510004503 79 85 9.0 21.0 0.00 0.00 0.00 14 1015.8
20260510003004 80 93 5.0 19.0 0.00 0.00 0.00 13 1015.8
20260510001504 80 86 11.0 17.0 0.00 0.00 0.00 13 1015.6
20260510000007 80 102 6.0 12.0 0.00 0.00 0.00 13 1015.5
20260509234515 81 96 1.0 5.0 0.00 0.00 0.00 13 1015.6
20260509233006 81 132 6.0 11.0 0.00 0.00 0.00 13 1015.8
20260509231509 82 102 12.0 20.0 0.00 0.00 0.00 12 1015.8
20260509230004 82 110 2.0 24.0 0.00 0.00 0.00 12 1015.9